Location: Asheville, NC
(35.6000°N, 82.5500°W)
Time: 03:15:05
(UTC-04:00)

Vanguard 1 Rocket - Pass Details

Date: 11 March 2018
Orbit: 653 x 4224 km, 34.3° (Epoch: 19 June)

Event Time Altitude Azimuth Distance (km) Brightness Sun altitude
Rises 18:45:38 0° 226° (SW) 3,574 11.5 9.0°
Reaches altitude 10° 18:47:47 10° 220° (SW) 2,869 10.9 8.6°
Maximum altitude 18:54:29 48° 147° (SSE) 1,934 9.0 7.2°
Drops below altitude 10° 19:07:05 10° 79° (E) 5,268 10.7 4.7°
Sets 19:12:37 0° 75° (ENE) 6,878 11.2 3.6°
